Home   Weather   Kralendijk   Past weeks
Flag for Caribbean Netherlands

Past Weather in Kralendijk, Bonaire, Caribbean Netherlands — Yesterday and Last 2 Weeks

Now
79 °F

Passing clouds.


Feels Like: 82 °F
Forecast: 83 / 77 °F
Wind: 17 mph from East

Location: Flamingo Airport - Bonaire

Current Time: Jan 23, 2019 at 5:30:30 am

Latest Report: Jan 23, 2019 at 4:55 am


Visibility: N/A

Pressure: 29.98 "Hg

Humidity: 79%

Dew Point: 72 °F

Location of KralendijkLocation

Past Weather in Kralendijk — Graph

°F

Kralendijk Temperature Yesterday

Maximum temperature yesterday: 86 °F (at 11:55 am)
Minimum temperature yesterday: 79 °F (at 12:55 am)
Average temperature yesterday: 81 °F

High & Low Weather Summary for the Past Weeks

 TemperatureHumidityPressure
High86 °F (Jan 8, 12:55 pm)89% (Jan 11, 12:55 am)30.04 "Hg (Jan 11, 12:55 am)
Low75 °F (Jan 11, 12:55 am)58% (Jan 8, 11:55 am)29.86 "Hg (Jan 10, 2:55 pm)
Average80 °F73%29.96 "Hg
* Reported Jan 8 3:55 am — Jan 23 3:55 am, Kralendijk. Weather by CustomWeather, © 2019

Note: Actual official high and low records may vary slightly from our data, if they occured in-between our weather recording intervals... More about our weather records

Advertising

Kralendijk Weather History for the Previous 24 Hours

Scroll right to see more
 ConditionsComfort  
Time TempWeatherWind HumidityBarometerVisibility
3:55 am
Wed, Jan 23
79 °FPartly cloudy.18 mph79%29.95 "HgN/A
2:55 am77 °FLight rain. Passing clouds.18 mph83%29.98 "HgN/A
1:55 am79 °FPassing clouds.16 mph79%29.98 "HgN/A
12:55 am79 °FPassing clouds.17 mph79%30.01 "HgN/A
11:55 pm
Tue, Jan 22
79 °FPassing clouds.20 mph79%30.01 "HgN/A
10:55 pm79 °FClear.16 mph79%30.01 "HgN/A
9:55 pm79 °FClear.18 mph74%30.01 "HgN/A
8:55 pm79 °FPassing clouds.18 mph74%30.01 "HgN/A
7:55 pm81 °FPassing clouds.20 mph70%30.01 "HgN/A
6:55 pm81 °FClear.17 mph70%29.98 "HgN/A
5:55 pm81 °FPassing clouds.17 mph74%29.98 "HgN/A
4:55 pm81 °FPartly sunny.18 mph74%29.95 "HgN/A
3:55 pm82 °FPassing clouds.20 mph66%29.95 "HgN/A
2:55 pm86 °FBroken clouds.17 mph59%29.98 "HgN/A
1:55 pm86 °FBroken clouds.17 mph62%29.98 "HgN/A
12:55 pm84 °FBroken clouds.18 mph66%30.01 "HgN/A
11:55 am86 °FMostly cloudy.17 mph62%30.04 "HgN/A
10:55 am82 °FScattered clouds.20 mph70%30.04 "HgN/A
9:55 am84 °FPartly sunny.18 mph66%30.04 "HgN/A
8:55 am82 °FScattered clouds.17 mph70%30.04 "HgN/A
7:55 am81 °FScattered clouds.17 mph74%30.01 "HgN/A
6:55 am79 °FPassing clouds.14 mph79%30.01 "HgN/A
5:55 am79 °FPartly cloudy.14 mph79%29.98 "HgN/A
Weather by CustomWeather, © 2019

See weather overview